Location: Milton Keynes
(52.0316°N, 0.7531°W)
Time: 23:18:28
(UTC+00:00)

N. Korean satellite - Pass Details

Date: 29 September 2020
Orbit: 452 x 505 km, 97.2° (Epoch: 29 October)

Event Time Altitude Azimuth Distance (km) Brightness Sun altitude
Rises 06:05:55 0° 21° (NNE) 2,595 10.7 -9.3°
Reaches altitude 10° 06:08:13 10° 32° (NNE) 1,697 9.9 -9.0°
Maximum altitude 06:11:27 30° 95° (E) 905 8.9 -8.5°
Drops below altitude 10° 06:14:38 10° 158° (SSE) 1,657 9.5 -8.0°
Sets 06:16:50 0° 170° (S) 2,520 10.3 -7.6°
